Terminal Aerodrome Forecast
Issued by NWS

Home | Current Version | Previous Version | Text Only | Print | Product List | Glossary On
Versions: 1 2 3 4 5 6 7 8 9 10 11 12 13 14 15
920
FTAK31 PAJN 280527
TAFAJN
TAF
PAJN 280527Z 2806/0106 08004KT P6SM BKN100
     FM281200 08006KT P6SM VCSH OVC060
     FM281400 09008KT 6SM -SN OVC025
     FM281600 09008KT 1SM -SN OVC012
     FM282200 09008KT 4SM -SN OVC025=

USA.gov is the U.S. government's official web portal to all federal, state and local government web resources and services.